This demonstration page uses our WeatherBlox Daily Observations layout. Learn more.

Left ArrowRight Arrow

34.16533, -84.80231

Hourly Observations for August 20, 2017

Temp ( °F °C ) Dew Point ( °F °C ) Humidity (%) Winds ( mph kmh ) Pressure ( in mb ) Visibility ( mi km ) Precip ( " mm )
12:53 am 00:53 Clear 69 20.6 69 20.6 100 100 Calm 30.01 1016 10 16 0.00 0.00
1:53 am 01:53 Clear 68 20 68 20 100 100 Calm 30.01 1016 9 14 0.00 0.00
2:53 am 02:53 Clear 67 19.4 67 19.4 100 100 Calm 30.00 1016 8 13 0.00 0.00
3:53 am 03:53 Clear 66 18.9 66 18.9 100 100 Calm 30.00 1016 9 14 0.00 0.00
4:31 am 04:31 Partly Cloudy 66 18.9 66 18.9 100 100 Calm 30.03 1017 8 13 0.00 0.00
4:40 am 04:40 Mostly Cloudy 67 19.4 67 19.4 100 100 Calm 30.03 1017 8 13 0.00 0.00
4:53 am 04:53 Partly Cloudy 67 19.4 67 19.4 100 100 Calm 30.01 1016 8 13 0.00 0.00
5:53 am 05:53 Partly Cloudy 66 18.9 66 18.9 100 100 Calm 30.02 1017 7 11 0.00 0.00
6:01 am 06:01 Mostly Cloudy with Mist and Fog 66 18.9 66 18.9 100 100 Calm 30.03 1017 5 8 0.00 0.00
6:13 am 06:13 Cloudy with Mist and Fog 65 18.3 65 18.3 100 100 Calm 30.03 1017 3 4 0.00 0.00
6:22 am 06:22 Cloudy with Mist and Fog 66 18.9 66 18.9 100 100 Calm 30.03 1017 6 10 0.00 0.00
6:37 am 06:37 Cloudy with Mist and Fog 66 18.9 66 18.9 100 100 Calm 30.06 1018 2 3 0.00 0.00
6:47 am 06:47 Mostly Cloudy with Mist and Fog 66 19 66 19 100 100 Calm 30.06 1018 1 1 0.00 0.00
6:53 am 06:53 Mostly Cloudy with Fog 66 18.9 66 18.9 100 100 Calm 30.04 1017 1 1 0.00 0.00
7:06 am 07:06 Cloudy with Mist and Fog 66 18.9 66 18.9 100 100 Calm 30.06 1018 1 2 0.00 0.00
7:13 am 07:13 Mostly Cloudy with Fog 65 18.3 65 18.3 100 100 Calm 30.06 1018 0 0 0.00 0.00
7:53 am 07:53 Mostly Cloudy with Fog 66 18.9 66 18.9 100 100 Calm 30.06 1018 5 8 0.00 0.00
8:19 am 08:19 Mostly Cloudy with Mist and Fog 68 20 68 20 100 100 Calm 30.09 1019 1 1 0.00 0.00
8:27 am 08:27 Cloudy with Mist and Fog 68 20 68 20 100 100 Calm 30.09 1019 2 3 0.00 0.00
8:34 am 08:34 Cloudy with Mist and Fog 69 20.6 69 20.6 100 100 Calm 30.09 1019 2 3 0.00 0.00
8:45 am 08:45 Partly Cloudy with Mist and Fog 69 20.6 69 20.6 100 100 Calm 30.09 1019 5 8 0.00 0.00
8:53 am 08:53 Partly Cloudy with Mist and Fog 70 21.1 70 21.1 100 100 Calm 30.08 1019 6 10 0.00 0.00
9:53 am 09:53 Sunny 76 24.4 72 22.2 88 88 Calm 30.09 1019 10 16 0.00 0.00
10:53 am 10:53 Sunny 84 28.9 71 21.7 65 65 Calm 30.09 1019 10 16 0.00 0.00
11:53 am 11:53 Sunny 87 30.6 69 20.6 55 55 VRB 3 6 30.09 1019 10 16 0.00 0.00
12:53 pm 12:53 Sunny 89 31.7 67 19.4 48 48 Calm 30.09 1019 10 16 0.00 0.00
1:53 pm 13:53 Sunny 91 32.8 68 20 47 47 N 3 6 30.08 1019 10 16 0.00 0.00
2:53 pm 14:53 Sunny 92 33.3 68 20 46 46 NE 3 6 30.06 1018 10 16 0.00 0.00
3:53 pm 15:53 Mostly Sunny 92 33.3 67 19.4 44 44 Calm 30.04 1017 10 16 0.00 0.00
4:53 pm 16:53 Sunny 91 32.8 65 18.3 42 42 SE 3 6 30.02 1017 10 16 0.00 0.00
5:53 pm 17:53 Sunny 91 32.8 67 19.4 45 45 Calm 30.02 1017 10 16 0.00 0.00
6:53 pm 18:53 Sunny 89 31.7 70 21.1 53 53 VRB 3 6 30.03 1017 10 16 0.00 0.00
7:53 pm 19:53 Sunny 81 27.2 75 23.9 82 82 Calm 30.06 1018 10 16 0.00 0.00
8:53 pm 20:53 Clear 74 23.3 72 22.2 94 94 Calm 30.07 1018 10 16 0.00 0.00
9:53 pm 21:53 Clear 73 22.8 73 22.8 100 100 Calm 30.09 1019 10 16 0.00 0.00
10:53 pm 22:53 Clear 72 22.2 72 22.2 100 100 SE 3 6 30.09 1019 10 16 0.00 0.00
11:53 pm 23:53 Clear 72 22.2 71 21.7 97 97 Calm 30.10 1019 10 16 0.00 0.00

Powered by AerisWeather